TimeEST,TemperatureF,Dew PointF,Humidity,Sea Level PressureIn,VisibilityMPH,Wind Direction,Wind SpeedMPH,Gust SpeedMPH,PrecipitationIn,Events,Conditions,WindDirDegrees,DateUTC
12:15 AM,51.8,48.2,88,29.93,10.0,Calm,Calm,-,0.00,,Scattered Clouds,0,2012-12-29 05:15:00
12:35 AM,51.8,48.2,88,29.92,10.0,Calm,Calm,-,0.00,,Scattered Clouds,0,2012-12-29 05:35:00
12:55 AM,51.8,48.2,88,29.91,10.0,Calm,Calm,-,0.00,,Scattered Clouds,0,2012-12-29 05:55:00
1:15 AM,51.8,50.0,94,29.90,8.0,Calm,Calm,-,0.00,,Mostly Cloudy,0,2012-12-29 06:15:00
1:35 AM,53.6,51.8,94,29.88,5.0,ENE,3.5,-,0.00,,Mostly Cloudy,70,2012-12-29 06:35:00
1:55 AM,53.6,51.8,94,29.85,4.0,ENE,6.9,-,0.00,,Overcast,70,2012-12-29 06:55:00
2:15 AM,53.6,53.6,100,29.85,8.0,East,6.9,-,0.00,,Overcast,80,2012-12-29 07:15:00
2:35 AM,55.4,53.6,94,29.84,3.0,East,5.8,-,0.01,Rain,Light Rain,80,2012-12-29 07:35:00
2:55 AM,55.4,53.6,94,29.83,3.0,East,4.6,-,0.03,Rain,Light Rain,90,2012-12-29 07:55:00
3:15 AM,55.4,53.6,94,29.80,3.0,East,5.8,-,0.00,,Overcast,90,2012-12-29 08:15:00
3:35 AM,55.4,53.6,94,29.78,5.0,East,10.4,-,0.00,,Light Drizzle,90,2012-12-29 08:35:00
3:55 AM,55.4,55.4,100,29.77,4.0,Calm,Calm,-,0.01,Rain,Light Rain,0,2012-12-29 08:55:00
4:15 AM,57.2,55.4,94,29.75,5.0,Calm,Calm,-,0.00,,Overcast,0,2012-12-29 09:15:00
4:35 AM,57.2,57.2,100,29.75,4.0,Calm,Calm,-,0.01,Rain,Light Rain,0,2012-12-29 09:35:00
4:55 AM,59.0,57.2,94,29.72,3.0,Calm,Calm,-,0.04,Rain,Rain,0,2012-12-29 09:55:00
5:15 AM,62.6,60.8,94,29.71,0.5,SSW,6.9,-,0.35,Rain,Heavy Rain,200,2012-12-29 10:15:00
5:35 AM,62.6,62.6,100,29.70,1.8,West,8.1,-,0.55,Rain,Heavy Rain,260,2012-12-29 10:35:00
5:55 AM,64.4,64.4,100,29.69,5.0,South,18.4,24.2,0.66,,Overcast,180,2012-12-29 10:55:00
6:15 AM,64.4,64.4,100,29.70,3.0,SSW,19.6,28.8,0.02,,Overcast,210,2012-12-29 11:15:00
6:35 AM,66.2,64.4,94,29.72,4.0,SSW,23.0,34.5,0.05,,Overcast,210,2012-12-29 11:35:00
6:55 AM,64.4,64.4,100,29.73,4.0,SW,11.5,26.5,0.05,,Light Drizzle,230,2012-12-29 11:55:00
7:15 AM,55.4,53.6,94,29.76,5.0,NW,12.7,27.6,0.03,Rain,Rain,310,2012-12-29 12:15:00
7:35 AM,51.8,51.8,100,29.77,1.5,NW,10.4,-,0.06,Rain,Light Rain,310,2012-12-29 12:35:00
7:55 AM,51.8,50.0,94,29.76,4.0,NNW,5.8,-,0.07,,Light Drizzle,330,2012-12-29 12:55:00
8:15 AM,51.8,50.0,94,29.77,5.0,NW,6.9,-,0.00,,Overcast,310,2012-12-29 13:15:00
8:35 AM,51.8,50.0,94,29.76,8.0,Calm,Calm,-,0.00,,Overcast,0,2012-12-29 13:35:00
8:55 AM,51.8,51.8,100,29.77,10.0,WNW,6.9,-,0.00,,Overcast,290,2012-12-29 13:55:00
9:35 AM,53.6,51.8,94,29.78,10.0,West,8.1,-,0.00,,Overcast,280,2012-12-29 14:35:00
9:55 AM,55.4,51.8,88,29.80,10.0,West,9.2,-,0.00,,Overcast,260,2012-12-29 14:55:00
10:15 AM,55.4,53.6,94,29.80,10.0,West,12.7,21.9,0.00,,Mostly Cloudy,270,2012-12-29 15:15:00
10:35 AM,57.2,53.6,88,29.80,10.0,West,16.1,21.9,0.00,,Scattered Clouds,270,2012-12-29 15:35:00
11:15 AM,59.0,51.8,77,29.80,10.0,WNW,16.1,23.0,0.00,,Mostly Cloudy,290,2012-12-29 16:15:00
11:35 AM,59.0,50.0,72,29.81,10.0,WNW,19.6,27.6,0.00,,Scattered Clouds,290,2012-12-29 16:35:00
11:55 AM,57.2,48.2,72,29.81,10.0,WNW,21.9,28.8,0.00,,Scattered Clouds,290,2012-12-29 16:55:00
12:15 PM,57.2,48.2,72,29.80,10.0,WNW,24.2,27.6,0.00,,Mostly Cloudy,300,2012-12-29 17:15:00
12:55 PM,57.2,46.4,67,29.80,10.0,West,15.0,26.5,0.00,,Mostly Cloudy,280,2012-12-29 17:55:00
1:15 PM,59.0,46.4,63,29.80,10.0,West,17.3,27.6,0.00,,Partly Cloudy,280,2012-12-29 18:15:00
1:35 PM,59.0,44.6,59,29.79,10.0,West,17.3,23.0,0.00,,Partly Cloudy,280,2012-12-29 18:35:00
1:55 PM,59.0,44.6,59,29.80,10.0,West,16.1,23.0,0.00,,Partly Cloudy,270,2012-12-29 18:55:00
2:15 PM,59.0,44.6,59,29.80,10.0,West,16.1,24.2,0.00,,Partly Cloudy,270,2012-12-29 19:15:00
2:35 PM,60.8,44.6,55,29.79,10.0,West,15.0,19.6,0.00,,Clear,270,2012-12-29 19:35:00
3:15 PM,59.0,42.8,55,29.80,10.0,West,18.4,23.0,0.00,,Clear,270,2012-12-29 20:15:00
3:35 PM,59.0,42.8,55,29.81,10.0,West,16.1,25.3,0.00,,Clear,260,2012-12-29 20:35:00
3:55 PM,57.2,42.8,59,29.83,10.0,West,19.6,25.3,0.00,,Clear,270,2012-12-29 20:55:00
4:15 PM,55.4,39.2,54,29.84,10.0,WSW,16.1,25.3,0.00,,Clear,250,2012-12-29 21:15:00
4:35 PM,53.6,39.2,58,29.84,10.0,West,18.4,25.3,0.00,,Clear,270,2012-12-29 21:35:00
4:55 PM,53.6,39.2,58,29.86,10.0,West,18.4,-,0.00,,Clear,260,2012-12-29 21:55:00
5:15 PM,51.8,39.2,62,29.87,10.0,West,23.0,27.6,0.00,,Clear,270,2012-12-29 22:15:00
5:35 PM,50.0,39.2,66,29.88,10.0,West,16.1,24.2,0.00,,Partly Cloudy,280,2012-12-29 22:35:00
5:55 PM,50.0,37.4,62,29.89,10.0,West,19.6,32.2,0.00,,Mostly Cloudy,260,2012-12-29 22:55:00
6:15 PM,50.0,37.4,62,29.91,10.0,West,15.0,21.9,0.00,,Mostly Cloudy,260,2012-12-29 23:15:00
6:35 PM,50.0,37.4,62,29.92,10.0,West,9.2,-,0.00,,Mostly Cloudy,260,2012-12-29 23:35:00
6:55 PM,48.2,39.2,71,29.93,10.0,West,11.5,-,0.00,,Partly Cloudy,260,2012-12-29 23:55:00
7:15 PM,48.2,39.2,71,29.94,10.0,West,15.0,20.7,0.00,,Mostly Cloudy,280,2012-12-30 00:15:00
7:35 PM,48.2,37.4,66,29.94,10.0,West,21.9,26.5,0.00,,Mostly Cloudy,270,2012-12-30 00:35:00
7:55 PM,48.2,35.6,62,29.96,10.0,West,19.6,28.8,0.00,,Partly Cloudy,270,2012-12-30 00:55:00
8:15 PM,46.4,35.6,66,29.97,10.0,West,11.5,17.3,0.00,,Mostly Cloudy,280,2012-12-30 01:15:00
8:35 PM,46.4,33.8,62,29.98,10.0,West,17.3,29.9,0.00,,Scattered Clouds,280,2012-12-30 01:35:00
8:55 PM,46.4,33.8,62,30.00,10.0,WNW,19.6,27.6,0.00,,Scattered Clouds,290,2012-12-30 01:55:00
9:15 PM,46.4,33.8,62,30.00,10.0,West,19.6,31.1,0.00,,Mostly Cloudy,260,2012-12-30 02:15:00
9:35 PM,46.4,33.8,62,30.01,10.0,West,15.0,24.2,0.00,,Overcast,270,2012-12-30 02:35:00
9:55 PM,46.4,32.0,57,30.02,10.0,West,19.6,25.3,0.00,,Overcast,270,2012-12-30 02:55:00
10:15 PM,46.4,32.0,57,30.03,10.0,West,19.6,32.2,0.00,,Overcast,270,2012-12-30 03:15:00
10:35 PM,44.6,32.0,61,30.05,10.0,WNW,16.1,26.5,0.00,,Scattered Clouds,290,2012-12-30 03:35:00
10:55 PM,44.6,32.0,61,30.06,10.0,West,16.1,28.8,0.00,,Clear,270,2012-12-30 03:55:00
11:15 PM,44.6,32.0,61,30.07,10.0,West,16.1,26.5,0.00,,Clear,280,2012-12-30 04:15:00
11:35 PM,42.8,32.0,66,30.07,10.0,West,13.8,20.7,0.00,,Clear,270,2012-12-30 04:35:00
11:55 PM,42.8,32.0,66,30.07,10.0,West,16.1,19.6,0.00,,Clear,270,2012-12-30 04:55:00